Wind_Speed
46 46 46 46 46 46 46 47 48 49 50 51 53 54 56 57 58 60 61 63 64 65 66 67 68 70 72 73 75 77 78 80 81 83 85 86 88 89 89 90 89 89 88
46 46 46 47 47 47 47 48 50 51 52 54 55 57 58 60 61 62 64 65 66 67 67 68 70 72 74 76 77 79 80 82 83 84 85 87 88 89 89 89 88 87 86
47 47 48 48 48 48 49 50 52 53 55 56 58 59 61 62 64 65 66 67 67 68 68 70 72 74 76 78 79 81 82 83 85 86 87 88 89 89 88 87 86 84 83
48 48 48 49 49 50 52 54 55 56 57 59 60 62 63 65 66 67 68 68 68 69 70 72 74 76 78 80 81 82 83 85 86 87 88 88 88 88 88 85 83 81 81
48 49 49 50 51 52 54 56 57 59 61 62 63 64 65 67 67 68 69 69 70 71 73 75 76 78 80 81 82 84 85 86 87 88 88 88 87 87 85 84 82 81 80
50 50 50 52 53 54 56 58 60 61 63 64 65 66 67 68 69 70 70 70 72 73 75 76 78 80 81 83 84 85 86 87 88 88 88 87 86 85 83 82 82 81 80
51 51 52 53 54 56 58 60 61 63 65 66 67 67 68 69 70 71 71 72 73 74 76 78 79 81 83 84 85 86 86 87 87 87 86 85 84 83 82 81 80 80 80
52 52 53 54 56 58 59 61 62 64 66 67 68 69 69 70 71 71 72 73 74 76 77 79 81 82 83 85 85 85 86 86 86 86 86 84 82 80 80 80 79 79 78
54 54 55 56 57 59 60 61 63 65 66 67 68 68 69 69 70 72 73 74 76 77 78 80 81 82 84 86 86 86 85 83 83 83 82 80 79 78 79 79 79 79 79
56 57 57 58 58 59 60 62 63 64 66 67 67 67 68 69 71 73 75 76 76 77 79 81 82 83 84 85 85 84 82 81 81 80 79 78 77 76 77 78 79 80 79
59 59 59 58 58 59 60 61 62 63 64 65 66 66 68 70 72 74 76 77 78 79 80 81 82 83 83 83 83 81 80 81 80 78 77 75 75 75 76 77 78 78 78
59 59 59 59 59 59 60 60 62 63 64 65 66 67 69 71 73 76 77 78 78 79 79 80 81 81 81 81 80 79 79 80 79 77 76 75 75 75 76 77 77 77 77
59 59 59 59 59 60 60 61 62 63 64 65 67 69 71 73 74 76 76 78 79 80 79 79 80 80 80 79 78 78 78 78 78 77 76 75 75 75 76 76 76 77 76
59 58 59 59 60 61 61 62 63 64 65 68 70 71 73 73 74 75 77 79 79 79 79 79 79 79 79 78 77 77 77 77 77 77 76 76 76 76 76 76 76 76 75
59 59 60 61 62 62 62 63 64 66 68 70 71 72 73 73 75 77 78 78 78 79 80 79 79 78 78 77 77 76 76 76 76 76 76 76 76 76 76 77 77 76 74
60 61 61 62 62 63 64 65 67 68 70 71 72 73 74 75 77 77 78 78 78 78 78 78 77 77 77 76 76 76 75 75 75 76 76 77 77 77 77 77 77 75 72
60 61 62 63 64 65 67 68 69 70 71 72 73 74 75 76 76 76 76 77 77 77 77 77 76 76 76 76 75 75 75 75 75 76 76 77 77 77 77 76 75 72 68
62 63 64 65 66 67 67 68 69 70 71 72 73 74 75 75 75 76 76 76 76 77 77 77 76 76 75 75 74 74 74 75 75 76 76 76 76 76 75 73 71 68 65
63 64 65 65 66 67 68 68 69 70 71 72 73 74 74 75 75 75 75 76 76 77 77 76 76 75 75 74 74 74 75 75 75 75 76 76 75 74 71 69 67 64 60
63 64 65 65 66 67 68 69 69 70 71 72 72 73 73 74 74 75 75 76 76 76 75 75 74 74 74 74 74 75 75 75 75 75 74 74 72 70 67 64 61 57 52
63 64 65 66 66 67 68 69 69 70 71 71 72 73 74 74 75 75 75 76 76 75 74 74 73 74 74 74 75 75 75 74 74 73 72 70 68 66 62 58 54 50 46
62 63 64 65 66 67 68 69 69 70 71 72 73 74 74 74 75 75 75 76 75 74 74 74 74 74 74 74 74 74 73 72 71 69 67 66 63 60 56 52 48 44 39
62 63 64 65 66 67 68 69 70 71 72 73 73 74 74 75 75 75 75 75 75 74 74 74 74 74 74 74 73 72 70 68 66 65 63 60 57 54 50 46 42 37 33
62 63 64 65 66 67 69 70 71 72 73 73 74 75 76 76 76 77 76 76 75 74 74 74 73 73 72 71 69 67 66 64 62 59 56 53 50 47 43 39 36 32 28
61 63 64 65 67 69 70 72 73 74 75 75 76 77 77 77 77 77 76 75 74 73 72 71 70 68 67 66 64 61 59 57 54 52 49 47 44 41 37 34 31 27 23
62 64 66 68 70 72 73 74 75 76 77 77 78 78 77 77 76 75 73 72 71 69 68 66 65 62 60 59 57 55 53 51 48 46 44 41 38 35 32 29 26 23 21
Wind_Direction
275 273 271 270 269 268 267 267 267 267 269 270 272 274 276 278 280 283 285 287 289 291 293 294 295 297 298 299 300 301 302 304 305 306 307 308 309 310 312 313 313 314 314
274 273 272 270 269 269 268 268 268 268 270 272 274 276 278 280 282 284 286 288 289 291 293 294 295 296 298 299 300 301 303 304 305 306 307 309 310 311 312 313 314 314 315
274 273 272 271 270 269 268 268 269 270 271 273 275 277 279 281 283 285 286 288 290 291 293 294 295 296 298 299 301 302 303 304 305 306 308 309 310 311 312 313 314 315 315
273 272 272 271 270 269 269 270 271 272 273 275 276 278 280 282 284 285 287 288 290 292 293 294 295 296 298 299 301 302 303 305 306 307 308 309 310 312 312 313 314 314 315
272 272 271 271 270 271 271 272 273 274 275 276 278 280 281 282 284 285 287 289 290 292 293 294 295 297 298 299 301 302 304 305 306 307 309 310 311 312 313 313 314 314 315
273 272 271 271 272 272 273 274 275 276 277 278 279 281 282 282 284 285 287 289 290 292 293 294 296 297 298 299 300 302 303 305 306 308 309 311 312 312 313 313 314 314 315
273 273 272 272 273 273 273 274 275 277 278 279 279 280 281 282 284 285 287 289 291 292 293 294 295 296 297 298 300 302 303 304 306 308 309 311 312 312 312 313 314 315 316
273 273 273 273 273 273 273 274 276 276 277 278 279 280 281 283 284 286 287 289 290 291 292 293 294 295 296 297 299 301 303 305 307 308 310 311 311 311 312 313 313 314 316
274 273 273 273 272 273 274 275 275 276 277 277 279 280 281 283 284 286 287 288 289 290 291 292 293 294 296 297 299 301 303 305 306 308 310 310 311 311 311 312 313 313 315
273 273 273 273 273 274 274 274 275 275 276 277 278 280 281 283 284 285 286 287 288 288 289 291 292 294 295 297 299 302 304 305 306 308 309 309 310 310 310 311 312 313 314
274 274 274 274 274 274 274 274 274 275 276 278 279 280 281 282 283 284 285 285 286 287 289 290 292 293 295 298 301 303 304 305 307 307 308 308 308 308 309 310 311 312 313
273 273 273 273 273 273 273 274 274 275 276 278 278 279 280 280 281 283 283 284 285 286 288 290 292 294 297 299 302 303 304 305 306 307 307 307 307 307 308 309 309 310 311
273 272 272 273 273 273 273 274 275 276 276 277 277 278 278 279 281 282 283 284 285 286 288 291 293 296 298 300 302 303 304 305 305 306 306 306 306 307 307 308 308 309 310
273 273 273 273 273 274 274 275 275 275 275 276 276 277 279 280 281 281 282 284 286 288 290 293 295 297 299 300 301 302 303 304 304 305 305 305 306 306 306 307 307 308 308
273 273 273 274 274 274 275 275 276 275 276 276 277 278 278 279 280 281 284 286 288 290 292 295 296 298 299 300 301 301 302 302 303 303 304 304 305 305 305 306 306 306 306
274 274 274 274 275 275 275 276 275 275 276 276 277 278 279 280 281 283 285 287 290 292 294 296 297 298 299 299 300 300 301 301 301 302 302 303 303 304 304 305 305 305 304
275 275 275 275 275 275 276 275 275 276 276 277 278 279 281 282 284 285 287 289 291 293 295 296 297 298 298 299 299 299 300 300 300 301 301 302 303 303 304 304 304 303 302
276 276 276 276 276 276 276 276 276 277 278 279 280 281 283 285 286 288 290 291 293 294 295 296 296 297 297 297 298 298 299 299 300 300 301 301 302 302 303 303 302 302 301
275 275 276 276 276 277 277 278 278 279 280 281 283 284 285 287 288 290 291 292 293 294 295 296 296 296 296 296 297 298 298 299 299 300 300 301 302 302 302 302 302 301 300
275 276 276 277 277 278 279 280 281 282 283 284 285 286 287 288 290 291 292 293 293 294 294 295 295 295 295 296 297 297 298 298 299 299 300 301 301 301 301 301 301 300 298
276 277 278 278 279 280 281 282 283 284 285 286 287 288 289 290 291 292 292 293 293 293 293 293 293 294 295 296 296 297 297 298 299 299 300 300 300 301 301 301 300 298 296
277 278 279 280 281 281 282 283 284 285 287 288 288 289 290 291 292 292 292 293 293 292 292 292 293 294 295 295 296 297 297 298 298 298 299 299 299 299 299 299 298 296 293
278 279 280 281 282 283 284 285 286 287 288 289 290 290 291 291 292 292 292 292 292 292 292 293 293 294 294 294 295 296 296 297 297 298 298 298 298 298 298 298 296 293 289
280 281 282 284 285 286 287 287 288 289 289 290 290 291 291 291 291 291 291 291 291 291 291 292 292 292 293 294 294 295 296 296 297 297 297 297 297 297 296 295 293 290 284
283 284 285 286 287 288 289 289 289 290 290 291 291 291 291 291 291 291 290 291 291 291 291 291 291 292 292 292 293 294 295 296 296 296 296 296 295 295 294 292 289 283 276
286 287 288 289 289 290 290 290 290 290 290 291 291 291 291 291 290 290 290 289 289 290 290 290 291 291 291 292 293 294 295 295 296 296 296 295 294 292 291 288 282 275 267
Height
5731 5730 5729 5729 5728 5727 5727 5727 5726 5725 5725 5724 5722 5721 5719 5717 5714 5711 5708 5704 5701 5697 5692 5687 5682 5676 5671 5665 5658 5652 5645 5638 5631 5621 5611 5602 5592 5583 5574 5564 5553 5542 5530
5720 5719 5718 5717 5717 5716 5716 5716 5715 5714 5713 5711 5710 5708 5706 5703 5700 5697 5694 5690 5686 5682 5677 5672 5666 5660 5654 5648 5641 5635 5627 5620 5613 5605 5595 5585 5575 5564 5556 5547 5536 5524 5513
5709 5708 5707 5706 5706 5705 5704 5703 5702 5701 5700 5698 5697 5694 5692 5689 5686 5682 5679 5675 5671 5666 5661 5656 5650 5644 5637 5631 5624 5617 5609 5601 5593 5586 5577 5567 5558 5547 5539 5530 5519 5508 5497
5697 5696 5695 5695 5694 5693 5692 5691 5690 5688 5687 5685 5682 5680 5677 5674 5671 5667 5663 5659 5655 5650 5645 5639 5633 5627 5620 5613 5606 5599 5591 5582 5574 5566 5558 5549 5539 5529 5520 5513 5505 5494 5483
5685 5684 5684 5683 5681 5680 5679 5678 5677 5675 5673 5670 5668 5665 5662 5659 5655 5651 5648 5644 5639 5634 5628 5622 5616 5609 5602 5596 5589 5581 5573 5564 5555 5546 5539 5529 5519 5510 5501 5492 5484 5477 5467
5672 5672 5671 5669 5668 5667 5666 5664 5663 5661 5658 5656 5653 5650 5647 5643 5639 5635 5631 5627 5623 5617 5611 5605 5598 5591 5584 5578 5571 5564 5555 5546 5536 5527 5520 5510 5501 5491 5482 5472 5462 5455 5450
5659 5658 5657 5656 5655 5654 5652 5650 5648 5646 5643 5640 5637 5634 5631 5627 5622 5619 5615 5611 5606 5600 5593 5587 5580 5573 5566 5559 5553 5546 5538 5527 5517 5509 5501 5491 5482 5473 5464 5456 5446 5435 5425
5645 5644 5643 5642 5641 5639 5637 5635 5633 5630 5628 5625 5622 5618 5615 5611 5606 5602 5598 5594 5589 5583 5576 5569 5563 5555 5547 5541 5536 5529 5520 5510 5499 5491 5484 5475 5464 5454 5445 5436 5427 5419 5411
5629 5629 5628 5626 5625 5623 5622 5620 5617 5615 5612 5609 5606 5602 5599 5594 5589 5585 5581 5577 5572 5566 5559 5552 5545 5537 5529 5522 5517 5512 5504 5494 5482 5473 5465 5456 5446 5436 5426 5417 5409 5399 5393
5613 5612 5611 5610 5609 5608 5606 5604 5601 5599 5596 5593 5590 5586 5582 5578 5573 5568 5563 5560 5555 5548 5541 5535 5527 5519 5511 5503 5497 5491 5485 5477 5467 5459 5449 5440 5430 5420 5409 5400 5390 5381 5371
5596 5596 5595 5594 5593 5591 5589 5587 5585 5582 5579 5577 5574 5570 5566 5561 5556 5551 5545 5541 5536 5530 5525 5518 5510 5501 5494 5486 5478 5472 5464 5456 5450 5442 5434 5425 5415 5405 5395 5385 5375 5365 5355
5580 5579 5578 5577 5576 5574 5572 5570 5568 5566 5563 5560 5557 5553 5549 5544 5539 5532 5527 5522 5517 5512 5507 5501 5493 5484 5477 5469 5461 5453 5446 5438 5431 5424 5417 5409 5400 5390 5380 5370 5360 5350 5341
5563 5562 5561 5560 5559 5557 5555 5553 5551 5548 5546 5543 5540 5536 5531 5526 5521 5515 5509 5503 5498 5493 5489 5482 5475 5467 5459 5452 5444 5436 5428 5420 5412 5405 5398 5391 5382 5373 5364 5354 5345 5335 5327
5546 5545 5544 5542 5541 5539 5538 5536 5534 5531 5528 5525 5521 5518 5513 5508 5503 5497 5491 5485 5478 5473 5468 5463 5456 5449 5441 5435 5427 5419 5411 5403 5394 5387 5379 5372 5364 5356 5347 5337 5329 5320 5312
5528 5527 5526 5524 5523 5521 5520 5518 5515 5513 5510 5507 5503 5498 5494 5490 5484 5478 5472 5466 5460 5454 5448 5443 5437 5430 5423 5416 5409 5402 5394 5386 5377 5369 5361 5353 5345 5337 5329 5320 5311 5303 5295
5510 5509 5508 5506 5505 5503 5501 5499 5496 5493 5490 5486 5483 5479 5474 5469 5464 5459 5453 5447 5441 5435 5429 5424 5418 5411 5404 5397 5390 5384 5376 5368 5360 5352 5344 5336 5327 5319 5311 5302 5293 5285 5278
5493 5491 5490 5488 5486 5484 5481 5479 5476 5473 5470 5466 5462 5458 5454 5449 5444 5439 5433 5428 5422 5416 5410 5405 5399 5392 5385 5378 5371 5365 5358 5350 5342 5334 5326 5318 5309 5301 5293 5284 5275 5267 5260
5474 5473 5471 5468 5466 5464 5461 5459 5456 5453 5450 5445 5441 5437 5433 5428 5424 5419 5413 5408 5402 5397 5391 5385 5379 5373 5366 5359 5352 5346 5339 5331 5323 5315 5307 5299 5291 5282 5274 5266 5258 5250 5244
5455 5453 5451 5449 5446 5444 5441 5438 5435 5432 5428 5425 5421 5417 5412 5408 5403 5398 5393 5387 5382 5376 5370 5365 5359 5353 5346 5340 5333 5326 5319 5312 5304 5296 5288 5280 5272 5264 5256 5248 5241 5234 5227
5436 5434 5432 5429 5427 5424 5421 5418 5415 5411 5408 5404 5400 5396 5392 5387 5382 5378 5372 5367 5361 5356 5350 5344 5338 5332 5326 5320 5313 5306 5299 5292 5285 5277 5269 5261 5253 5246 5238 5231 5224 5218 5213
5418 5415 5413 5410 5408 5405 5401 5398 5395 5391 5387 5383 5379 5375 5371 5366 5361 5356 5351 5346 5340 5335 5329 5324 5318 5312 5306 5299 5293 5286 5279 5272 5265 5258 5250 5243 5236 5229 5222 5215 5209 5204 5199
5399 5397 5394 5391 5388 5385 5382 5378 5375 5371 5367 5363 5358 5354 5349 5344 5339 5334 5329 5324 5319 5313 5308 5303 5297 5291 5285 5279 5273 5266 5259 5252 5246 5239 5232 5225 5219 5213 5207 5201 5196 5191 5187
5380 5378 5375 5372 5369 5366 5362 5358 5354 5350 5346 5342 5337 5332 5327 5322 5317 5312 5307 5302 5297 5291 5286 5281 5276 5270 5264 5258 5252 5246 5240 5233 5227 5221 5215 5209 5203 5198 5193 5188 5184 5180 5177
5362 5359 5356 5353 5349 5346 5342 5338 5333 5329 5324 5320 5315 5310 5305 5300 5295 5290 5284 5279 5274 5269 5264 5259 5254 5248 5243 5237 5232 5226 5221 5215 5209 5204 5199 5193 5189 5184 5180 5176 5173 5170 5168
5343 5340 5337 5333 5329 5325 5321 5317 5312 5307 5302 5297 5292 5287 5282 5277 5272 5266 5261 5257 5252 5247 5242 5238 5233 5228 5223 5218 5213 5208 5203 5198 5193 5189 5184 5180 5175 5172 5169 5166 5163 5161 5160
5324 5321 5317 5313 5308 5304 5299 5294 5289 5284 5279 5274 5269 5263 5258 5253 5248 5243 5238 5234 5229 5225 5221 5217 5213 5209 5204 5200 5196 5191 5187 5183 5179 5175 5171 5167 5164 5161 5158 5156 5154 5153 5153